Location: Newark
(44.6768°N, 22.5302°E)
Time: 02:28:27
(UTC+00:00)

ZACube-1 - Visible Passes

Search period start: 28 June 2022 00:00
Search period end: 08 July 2022 00:00
Orbit: 581 x 662 km, 97.6° (Epoch: 27 June)

Date Brightness Start Highest point End Pass type
(mag) Time Alt. Az. Time Alt. Az. Time Alt. Az.
28 Jun ? 01:20:37 10° NE 01:23:31 17° E 01:26:26 10° SE visible
29 Jun ? 01:37:47 10° NE 01:41:29 25° E 01:45:13 10° SSE visible
30 Jun ? 01:55:14 10° NNE 01:59:24 38° E 02:03:37 10° SSE visible
03 Jul ? 01:13:49 10° NE 01:16:23 15° E 01:18:56 10° SE visible
04 Jul ? 01:30:49 10° NE 01:34:21 22° E 01:37:54 10° SE visible
05 Jul ? 01:48:11 10° NNE 01:52:17 33° E 01:56:23 10° SSE visible
06 Jul ? 02:05:45 10° NNE 02:10:10 50° E 02:14:35 10° S visible
